WA7RHK-2 Weather Reports


time (UTC)temp
C
wind
direction
speed
KPH
gust
KPH
rain 1hr
cm
rain 24hr
cm
rain mn
cm
humidity
%
barometer
mb
20240723044519 22 158 0.0 1.6 0.05 1.30 1.30 94 1015.1
20240723043019 22 134 0.0 0.0 0.03 1.27 1.27 94 1015.1
20240723041518 22 134 0.0 0.0 0.03 1.27 1.27 94 1015.0
20240723040018 22 125 0.0 0.0 0.05 1.27 1.27 94 1014.9
20240723034532 23 104 0.0 0.0 0.08 1.24 1.24 94 1014.9
20240723033016 23 104 0.0 0.0 0.08 1.24 1.24 93 1014.6
20240723031521 23 117 0.0 0.0 0.08 1.24 1.24 93 1014.7
20240723030017 23 130 0.0 0.0 0.05 1.22 1.22 92 1014.7
20240723024515 23 129 0.0 0.0 0.00 1.17 1.17 91 1014.7
20240723023015 23 110 0.0 1.6 0.00 1.17 1.17 91 1014.5
20240723021513 23 125 0.0 1.6 0.00 1.17 1.17 90 1014.4
20240723020113 23 114 0.0 1.6 0.00 1.17 1.17 90 1014.2
20240723014516 24 108 0.0 1.6 0.00 1.17 1.17 90 1014.1
20240723013011 24 110 0.0 4.8 0.00 1.17 1.17 89 1013.8
20240723011511 24 108 0.0 3.2 0.00 1.17 1.17 89 1013.6
20240723010013 24 103 0.0 1.6 0.00 1.17 1.17 88 1013.6
20240723004520 24 105 0.0 1.6 0.00 1.17 1.17 88 1013.6
20240723003009 25 117 3.2 12.9 0.00 1.17 1.17 87 1014.0
20240723001509 25 121 4.8 14.5 0.00 1.17 1.17 88 1014.0
20240723000009 26 64 3.2 8.0 0.00 1.17 1.17 84 1013.9
20240722234508 26 115 0.0 1.6 0.00 1.17 1.17 84 1014.1
20240722233012 26 108 0.0 1.6 0.00 1.17 1.17 81 1014.1
20240722231518 27 104 0.0 1.6 0.00 1.17 1.17 82 1013.8
20240722230007 27 301 0.0 1.6 0.00 1.17 1.17 82 1013.6
20240722224507 27 311 0.0 6.4 0.00 1.17 1.17 84 1013.6
20240722223001 27 106 0.0 1.6 0.00 1.17 1.17 80 1013.4
20240722221600 27 248 0.0 0.0 0.00 1.17 1.17 82 1013.3
20240722220110 26 248 0.0 0.0 0.00 1.17 1.17 86 1013.2
20240722214557 26 126 0.0 0.0 0.00 1.17 1.17 87 1013.2
20240722213055 25 126 0.0 1.6 0.00 1.17 1.17 88 1013.6
20240722211555 25 65 0.0 1.6 0.00 1.17 1.17 88 1013.6
20240722210055 25 98 0.0 8.0 0.00 1.17 1.17 87 1013.7
20240722204557 25 42 0.0 1.6 0.00 1.17 1.17 89 1014.2
20240722203057 24 121 0.0 4.8 0.00 1.17 1.17 92 1014.4
20240722201551 24 127 0.0 3.2 0.08 1.17 1.17 94 1014.5
20240722200050 23 302 0.0 1.6 0.46 1.17 1.17 94 1013.9
20240722194548 22 344 0.0 1.6 0.71 1.17 1.17 94 1013.6
20240722193047 22 84 0.0 0.0 0.79 1.17 1.17 94 1013.9
20240722191547 22 330 0.0 0.0 0.69 1.07 1.07 94 1015.2
20240722190044 22 328 1.6 11.3 0.30 0.69 0.69 93 1014.7
20240722184545 23 321 0.0 4.8 0.03 0.41 0.41 91 1014.9
20240722183043 26 316 1.6 8.0 0.00 0.38 0.38 87 1014.4
20240722181541 27 174 0.0 0.0 0.00 0.38 0.38 89 1014.1
20240722180042 26 174 0.0 0.0 0.00 0.38 0.38 89 1014.1
20240722174538 26 172 0.0 1.6 0.20 0.38 0.38 90 1013.8
20240722173037 26 212 0.0 6.4 0.20 0.38 0.38 91 1014.1
20240722171537 25 173 0.0 3.2 0.20 0.38 0.38 92 1014.1
20240722170037 25 197 0.0 6.4 0.23 0.38 0.38 92 1014.7
20240722164545 25 174 3.2 11.3 0.05 0.18 0.18 91 1014.8
20240722163041 26 145 0.0 6.4 0.10 0.18 0.18 93 1014.9
20240722161533 26 160 0.0 1.6 0.15 0.18 0.18 93 1014.8
20240722160033 26 169 0.0 6.4 0.15 0.15 0.15 92 1014.9
20240722154532 26 151 0.0 1.6 0.13 0.13 0.13 92 1015.0
20240722153037 26 205 0.0 1.6 0.05 0.05 0.05 92 1015.0
20240722151530 26 174 0.0 3.2 0.03 0.03 0.03 90 1014.9
20240722150029 26 205 0.0 6.4 0.00 0.00 0.00 89 1014.9
20240722144532 26 229 0.0 6.4 0.00 0.00 0.00 89 1015.0
20240722143024 26 214 0.0 8.0 0.00 0.00 0.00 90 1014.9
20240722141521 25 228 0.0 11.3 0.00 0.00 0.00 91 1014.8
20240722140027 25 156 0.0 8.0 0.00 0.00 0.00 92 1014.7
20240722134515 24 162 3.2 6.4 0.00 0.00 0.00 92 1014.6
20240722133012 24 174 0.0 3.2 0.00 0.00 0.00 92 1014.5
20240722131511 23 204 0.0 1.6 0.00 0.00 0.00 92 1014.5
20240722130021 23 151 0.0 1.6 0.00 0.00 0.00 92 1014.5
20240722124509 23 165 0.0 0.0 0.00 0.00 0.00 92 1014.4
20240722123008 23 124 0.0 0.0 0.00 0.00 0.00 92 1014.0
20240722121505 -17 0.0 0.0 0.00 0.00 0.00 1013.9
20240722120156 -17 0.0 0.0 0.00 0.00 0.00 1013.9
20240722114555 -17 0.0 0.0 0.00 0.00 0.00 1013.9
20240722113050 -17 0.0 0.0 0.00 0.00 0.00 1013.8
20240722111547 -17 0.0 0.0 0.00 0.00 0.00 1013.7
20240722110047 -17 0.0 0.0 0.00 0.00 0.00 1013.7
20240722104539 -17 0.0 0.0 0.00 0.00 0.00 1013.7
20240722103037 22 124 0.0 0.0 0.00 0.00 0.00 91 1013.7
20240722101533 22 124 0.0 0.0 0.00 0.00 0.00 91 1013.8
20240722100031 22 124 0.0 0.0 0.00 0.00 0.00 92 1013.8
20240722094530 22 124 0.0 0.0 0.00 0.00 0.00 91 1013.8
20240722093028 22 124 0.0 0.0 0.00 0.00 0.00 91 1013.7
20240722091528 22 124 0.0 0.0 0.00 0.00 0.00 91 1013.7
20240722090028 22 124 0.0 0.0 0.00 0.00 0.00 91 1013.7
20240722084527 22 124 0.0 0.0 0.00 0.00 0.00 91 1013.6
20240722083027 22 124 0.0 0.0 0.00 0.00 0.00 91 1013.6
20240722081526 22 124 0.0 0.0 0.00 0.00 0.00 90 1013.6
20240722080025 22 124 0.0 0.0 0.00 0.00 0.00 90 1013.3
20240722074534 22 124 0.0 0.0 0.00 0.00 0.00 89 1013.4
20240722073021 23 124 0.0 0.0 0.00 0.00 0.00 88 1013.4
20240722071538 23 124 0.0 0.0 0.00 0.00 0.00 88 1013.6
20240722070041 23 124 0.0 0.0 0.00 0.00 0.00 88 1013.9
20240722064515 23 124 0.0 0.0 0.00 0.00 0.00 87 1014.0
20240722063017 23 124 0.0 0.0 0.00 0.00 0.00 87 1014.1
20240722061513 23 124 0.0 0.0 0.00 0.00 0.00 87 1014.0
20240722060012 23 124 0.0 0.0 0.00 0.00 0.00 87 1014.0
20240722054512 23 124 0.0 0.0 0.00 0.00 0.00 88 1014.2
20240722053007 23 124 0.0 0.0 0.00 0.00 0.00 87 1014.2
20240722051505 24 124 0.0 0.0 0.00 0.00 0.00 86 1014.4
20240722050003 24 124 0.0 0.0 0.00 0.00 0.00 86 1014.7